Tracking 35237 objects as of 5-Sep-2026
HD Live streaming from Space Station
objects crossing your sky now

ARIANE 44L R/B

Track ARIANE 44L R/B now!


NORAD ID: 24654
Int'l Code: 1996-063C
Launch date: November 13, 1996
Source: France (FR)
Launch site: FRENCH GUIANA (FRGUI)

Note: This is a ROCKET BODY
Your satellite tracking list
Your tracking list is empty




NASA's NSSDC Master Catalog

Two Line Element Set (TLE):
1 24654U 96063C   26247.88374289  .00001053  00000-0  13257-2 0  9994
2 24654   4.4122 312.3980 7104597 254.6286  22.5811  2.44465888254940
Source of the keplerian elements: AFSPC